Theta_e
307 308 309 309 308 305 306 307 301 314 319 308 311 304 304 302 307 311 308 308 304 303 303 302 302 302 306 309 309 305 310 308 301 303 306 307 308 305 306 299 299 302 300 299
306 307 308 309 307 306 306 302 303 317 316 302 304 307 305 306 305 307 306 305 307 308 303 300 303 304 309 308 307 307 310 305 299 301 303 305 303 305 307 307 307 300 299 300
306 307 307 307 307 305 305 303 299 308 311 309 306 304 304 304 307 306 308 306 309 306 303 306 302 304 307 309 307 311 311 308 304 300 301 305 302 303 305 306 300 301 301 303
305 306 307 307 306 305 305 304 302 303 303 304 305 304 304 303 303 308 309 307 306 306 303 304 304 306 307 308 310 306 308 302 305 305 306 306 304 304 304 303 304 300 302 302
305 305 306 306 306 304 305 301 301 304 303 301 302 299 303 303 303 304 304 305 304 306 305 306 305 306 307 305 309 307 305 300 303 301 304 303 301 304 304 304 304 303 304 303
305 306 306 306 305 305 306 307 307 302 297 298 298 301 301 301 301 304 305 304 304 304 308 312 314 314 313 311 307 304 303 302 299 294 300 302 298 303 303 304 305 305 301 306
304 305 305 305 306 304 306 305 304 300 294 297 297 297 298 298 300 300 303 304 304 308 311 315 315 313 312 312 310 310 303 302 302 296 299 290 303 308 306 303 305 308 307 307
304 304 305 305 305 304 306 306 304 301 294 298 296 297 297 299 301 299 300 303 306 311 308 306 303 303 305 306 309 309 308 304 299 296 296 300 301 304 303 302 304 308 307 310
303 303 304 304 306 302 305 303 305 303 296 295 297 296 298 297 298 298 300 305 309 309 306 303 296 294 298 298 302 310 308 307 300 298 291 291 303 308 310 308 299 310 311 311
303 303 303 303 304 302 304 303 304 301 295 299 299 298 297 301 299 298 300 301 304 310 303 298 296 296 301 296 296 300 302 302 300 297 295 299 305 309 310 296 301 312 313 313
303 303 303 303 303 303 303 302 304 300 297 298 298 299 298 299 298 296 300 299 303 303 299 299 298 297 300 299 301 300 299 298 294 298 293 291 308 308 300 311 314 314 314 314
303 303 303 303 303 303 302 301 305 304 297 296 300 301 302 301 302 300 302 299 299 302 302 304 303 299 302 301 295 306 298 303 299 300 298 309 310 309 312 312 313 313 315 314
302 302 303 303 303 302 302 301 302 300 295 295 296 296 300 302 301 303 295 300 301 304 303 303 304 301 305 298 299 301 306 309 304 304 307 308 310 311 313 312 311 314 315 314
301 302 303 303 303 303 302 301 302 300 296 290 294 301 299 302 305 303 302 301 306 305 304 296 300 300 306 302 302 302 304 308 303 305 308 309 308 311 312 313 314 314 314 314
302 302 302 304 303 303 304 303 303 302 294 289 291 298 300 301 301 301 303 301 300 298 297 298 297 300 303 306 305 302 307 305 302 301 308 308 307 312 313 312 312 313 313 312
302 302 302 302 303 301 301 294 303 305 303 291 288 297 297 300 301 299 298 301 301 300 297 297 300 306 303 298 298 305 308 309 310 308 312 312 310 311 312 312 313 314 314 313
302 302 301 301 302 303 297 294 301 302 303 293 288 291 298 299 301 301 298 300 299 299 298 297 298 300 302 299 295 304 306 309 309 311 313 310 311 307 309 312 314 313 314 314
303 301 302 302 302 301 298 301 302 304 297 296 287 290 292 300 298 296 301 296 296 297 296 298 297 299 300 295 302 304 307 309 309 309 314 314 313 311 309 311 313 312 311 312
301 302 300 302 299 297 296 302 303 304 297 289 290 287 287 298 298 299 298 298 292 297 293 295 297 296 293 298 301 303 305 306 307 308 311 311 309 309 309 309 310 310 310 311
301 301 297 292 297 301 301 298 292 291 293 294 287 292 288 293 293 293 295 294 294 291 294 298 293 293 300 303 304 306 307 308 308 304 305 308 306 308 310 309 311 312 312 311
300 296 294 299 300 299 295 289 288 290 286 289 289 291 288 297 290 290 294 294 290 288 293 293 292 292 298 303 304 306 309 309 310 308 310 313 311 309 310 310 313 313 312 311
299 299 300 300 295 292 285 285 287 285 285 291 291 291 295 294 297 291 293 289 292 286 293 293 289 296 302 303 304 306 308 309 308 309 310 310 311 312 313 313 314 314 314 312
300 295 288 290 288 281 280 279 283 285 290 293 293 291 292 292 291 292 291 287 285 295 287 288 294 302 304 305 306 307 308 308 308 308 309 310 312 314 314 313 315 315 312 312
291 285 280 283 281 284 286 288 289 293 293 292 292 289 288 290 289 291 285 290 293 286 282 287 298 302 304 306 308 306 307 308 308 308 309 311 312 313 314 314 314 313 311 311
288 286 280 283 289 292 293 295 293 294 294 291 288 289 290 289 287 289 288 285 284 287 287 295 301 302 304 306 308 308 307 308 308 309 310 311 312 312 312 313 313 312 311 310
289 287 285 290 289 289 291 292 291 295 293 293 290 287 285 286 287 286 284 284 285 290 294 300 303 301 302 306 309 308 309 309 310 311 311 311 311 310 310 311 311 310 310 309
286 287 291 290 291 290 292 292 293 298 292 289 288 284 285 289 286 286 290 289 292 294 296 300 299 297 302 308 309 309 310 311 311 311 312 311 310 309 308 305 307 309 309 309
Wind_Speed
12 14 15 13 17 23 8 5 5 4 3 6 2 7 5 1 7 5 4 4 5 6 2 5 5 5 4 2 3 8 16 8 13 16 4 7 11 12 14 8 8 6 7 8
10 12 13 11 12 13 7 6 5 2 3 6 7 3 5 3 7 4 5 6 5 3 5 5 7 7 5 6 5 4 5 10 12 14 7 6 11 14 13 10 6 9 6 6
9 11 12 10 10 12 6 5 4 4 3 2 7 5 7 8 3 3 4 3 5 6 10 9 7 8 1 7 5 6 5 11 12 12 15 11 18 17 17 16 12 11 11 14
8 10 12 11 10 12 5 4 2 6 2 4 3 4 0 10 8 3 5 5 5 6 6 8 10 7 7 3 3 3 7 9 13 17 17 14 13 17 19 19 17 14 11 9
7 9 11 8 10 14 5 5 4 4 3 4 5 4 7 8 5 4 8 8 3 5 7 6 3 5 2 2 3 4 1 10 16 20 22 17 17 17 16 18 15 9 13 10
5 8 7 7 9 12 3 1 2 5 4 4 6 4 4 4 3 3 1 1 3 6 2 7 10 7 7 5 4 2 3 7 8 12 15 26 17 14 16 15 10 11 12 7
3 5 7 7 7 9 3 3 4 5 5 5 5 1 3 4 2 2 2 4 4 7 7 7 7 9 11 11 7 5 4 4 6 12 12 19 2 5 12 13 10 10 6 2
6 7 5 6 7 5 3 1 4 4 6 4 5 8 6 5 6 9 6 6 3 8 8 6 8 10 11 15 14 9 6 4 6 9 13 13 6 5 8 12 13 11 9 8
4 5 5 7 7 4 4 4 4 4 6 3 3 5 5 7 6 6 6 2 4 4 8 8 10 7 4 4 4 9 8 6 7 7 6 17 16 12 7 6 9 12 10 15
3 3 4 5 4 3 5 3 4 4 5 2 4 3 3 1 3 5 2 2 5 5 9 10 9 9 5 7 5 7 9 9 12 10 13 10 6 5 8 10 3 11 12 15
3 3 4 4 4 3 7 4 4 5 3 4 4 3 6 6 5 6 8 6 7 6 11 10 6 8 8 8 5 4 5 5 3 5 6 10 6 5 8 6 2 11 12 14
4 3 4 4 3 2 6 0 1 3 5 5 3 7 9 11 7 6 3 5 3 6 5 4 5 6 6 9 7 6 5 6 4 8 5 4 3 6 4 6 8 8 14 15
3 4 3 3 2 1 6 3 4 4 3 5 5 3 2 8 12 10 5 3 3 4 2 4 3 7 4 7 10 5 8 7 5 6 8 9 7 1 8 4 6 8 15 17
1 2 4 1 2 3 6 3 4 3 4 5 4 3 3 1 6 11 15 10 1 4 3 1 4 4 5 4 3 7 3 7 6 9 8 7 8 7 11 9 13 15 16 16
1 1 4 5 4 4 3 3 2 3 5 5 5 10 3 2 10 12 10 11 11 7 6 6 4 5 5 5 5 8 8 8 7 6 8 4 2 6 7 12 15 17 18 17
3 1 4 4 4 5 3 3 3 1 2 3 4 5 3 1 3 8 11 7 7 8 6 6 7 7 5 6 8 12 9 6 7 8 2 4 5 9 6 14 15 15 16 17
4 0 2 2 3 6 3 6 3 2 2 2 5 3 3 4 3 3 5 9 6 6 8 9 10 9 9 11 11 8 3 6 2 2 5 5 5 7 6 5 14 15 16 15
5 1 2 2 5 3 4 4 7 3 4 2 4 3 4 4 0 3 2 5 7 7 9 7 10 10 10 11 15 19 14 9 2 5 2 1 15 16 4 5 13 17 16 15
6 6 4 4 3 1 4 7 3 4 4 2 3 5 3 2 1 1 2 4 6 5 9 13 9 12 13 9 14 12 15 17 5 5 8 10 13 18 7 7 12 13 15 14
8 4 3 2 2 6 2 6 2 2 1 3 4 5 6 5 4 3 3 2 5 5 10 9 15 16 18 17 7 11 13 13 12 4 13 14 13 12 14 17 12 13 14 15
4 3 1 4 1 3 1 3 4 3 4 6 5 7 5 1 5 5 3 1 2 5 4 7 8 15 17 21 20 15 13 11 16 17 15 18 18 15 12 13 14 13 15 14
2 3 1 2 2 1 3 4 3 5 4 5 3 2 1 3 3 5 4 3 3 6 8 5 6 9 10 17 22 24 21 13 13 13 17 17 15 14 14 16 14 15 15 15
3 2 1 3 3 4 5 7 5 5 5 3 2 3 3 3 4 6 4 7 7 1 3 5 6 4 3 7 13 18 20 20 17 13 11 11 12 16 17 17 15 16 16 14
3 4 4 5 4 6 4 3 3 3 4 6 4 2 3 3 4 5 5 5 4 5 3 5 6 8 11 10 9 10 13 16 18 15 11 12 15 15 15 14 15 16 16 14
3 3 5 7 4 2 2 2 4 3 4 3 2 3 3 3 5 4 5 5 8 8 9 2 6 11 13 13 9 10 13 13 15 13 14 16 18 18 17 15 15 15 14 14
3 4 6 4 4 5 5 3 3 3 4 3 2 3 4 7 4 5 7 6 6 3 4 8 8 12 13 12 9 10 11 15 14 15 16 17 20 20 19 17 15 15 14 13
4 5 5 6 4 4 2 4 5 2 3 2 2 5 5 3 5 6 5 5 5 8 8 6 10 14 13 7 7 10 14 15 16 18 19 19 20 19 18 17 15 15 14 13
Wind_Direction
328 325 324 331 340 336 310 294 250 66 277 232 229 224 220 125 214 204 232 281 282 265 249 255 261 240 253 18 245 209 221 234 244 221 93 317 249 232 201 220 198 216 278 274
327 322 325 332 347 0 314 298 288 154 284 239 204 149 202 229 210 203 214 230 253 216 249 257 231 260 23 346 243 282 173 215 231 223 193 199 230 223 233 239 269 245 199 265
330 324 322 331 345 351 287 277 270 168 197 330 298 196 199 189 160 171 228 262 236 230 242 234 265 233 116 17 4 0 334 269 232 242 249 236 203 232 218 217 242 237 243 255
330 327 320 328 353 342 271 224 101 352 189 145 245 237 202 205 187 201 215 171 228 240 242 237 239 257 270 168 47 246 100 291 286 265 257 272 241 230 221 223 235 251 268 293
333 330 316 334 350 330 255 294 297 174 287 277 239 177 196 219 145 242 183 241 188 229 249 275 331 288 251 262 327 351 218 231 285 296 304 251 242 246 239 223 235 246 263 260
332 343 352 23 358 321 282 81 200 277 123 223 243 196 185 172 233 157 290 118 267 227 31 341 313 302 296 293 308 334 243 232 200 239 255 279 248 237 219 217 222 232 249 281
359 359 14 26 9 335 313 34 283 247 230 238 248 243 226 215 240 268 144 300 251 47 323 279 255 256 253 248 216 239 231 225 232 239 194 231 329 0 205 225 226 228 226 201
355 11 4 6 359 327 331 10 283 279 252 275 220 238 254 248 242 248 256 252 351 330 288 241 240 241 242 229 226 202 216 230 253 246 231 251 140 164 182 196 220 217 210 159
24 4 3 17 56 359 299 51 308 283 298 176 358 249 256 264 244 233 226 208 302 269 259 221 238 248 308 231 224 208 177 190 217 230 264 279 252 168 189 207 232 189 187 160
31 27 13 13 5 342 319 80 337 271 269 105 274 244 288 271 243 272 126 350 218 223 229 230 232 240 202 239 234 194 219 243 242 233 239 263 45 141 170 209 89 153 166 158
25 20 17 2 356 352 294 84 25 316 300 289 262 270 264 227 246 268 73 223 193 226 238 234 206 232 203 253 232 250 246 218 217 237 222 236 4 201 200 1 292 152 160 153
21 33 31 12 348 5 307 66 74 327 263 335 309 288 280 279 308 317 210 358 348 7 290 273 288 209 195 240 239 176 229 230 185 210 228 297 348 313 301 20 0 187 157 131
52 33 5 11 21 32 325 9 354 263 272 251 226 211 197 225 240 245 273 218 321 136 357 310 285 252 303 231 234 235 210 187 235 213 225 230 248 305 309 105 313 183 138 136
82 354 5 4 116 201 302 338 17 299 295 281 97 167 216 324 216 219 226 269 229 311 231 23 302 278 340 275 335 262 26 170 247 254 259 194 217 214 212 185 204 144 138 135
169 17 33 24 113 163 269 337 348 305 309 325 307 303 173 332 226 230 213 229 240 253 247 223 205 280 264 244 274 251 222 255 260 276 349 144 300 171 167 160 152 145 133 125
200 74 52 48 142 218 238 183 49 55 296 284 293 9 276 343 245 219 214 207 221 238 230 245 247 225 261 250 250 256 271 260 301 276 78 56 71 65 156 162 149 139 134 134
211 215 357 336 181 262 313 18 79 71 316 280 291 273 120 311 270 183 192 204 220 241 231 238 256 232 205 258 256 236 222 182 191 337 155 157 115 77 20 180 139 133 130 128
200 60 27 132 192 256 226 128 173 231 274 282 288 297 227 360 220 174 178 192 205 213 242 245 232 235 235 248 241 245 255 277 159 319 295 314 139 109 13 261 152 140 137 132
140 117 130 188 237 228 74 65 201 223 288 284 283 296 23 355 318 295 120 285 223 225 219 231 242 227 228 220 233 230 229 226 195 344 111 113 142 131 172 214 178 149 141 143
138 210 225 160 113 19 264 161 155 173 264 249 252 273 271 343 317 274 224 180 255 239 218 228 225 244 247 242 254 238 231 210 141 231 156 140 139 189 215 209 182 168 153 145
212 196 201 75 120 217 192 209 231 181 211 186 216 236 299 300 286 286 261 290 284 268 193 232 229 232 232 232 236 237 238 222 187 181 234 195 190 193 186 201 187 159 152 147
64 50 97 191 211 221 220 205 173 217 258 154 244 58 323 288 268 253 216 224 249 251 346 251 241 242 224 208 214 220 227 205 193 211 213 222 204 202 202 188 165 161 144 140
157 176 155 219 177 226 223 189 193 211 174 163 173 263 216 191 249 252 244 215 228 307 218 248 248 49 13 252 221 221 223 225 228 215 222 211 189 168 176 161 158 140 137 138
185 171 201 238 181 237 211 272 16 19 296 303 322 294 248 183 232 248 243 255 245 213 217 263 333 8 329 310 278 264 215 209 206 202 190 166 153 149 148 147 144 137 135 138
185 201 229 212 240 229 249 289 300 349 345 308 209 214 246 217 241 230 230 245 231 217 239 280 340 321 315 299 273 238 220 190 189 172 159 153 142 139 135 138 133 124 129 134
222 232 245 202 243 239 216 263 289 258 210 202 206 241 231 223 238 220 212 245 245 55 352 317 317 320 305 286 258 218 181 175 158 150 148 144 138 134 128 124 124 126 127 129
215 221 232 265 289 300 305 228 287 319 291 273 248 225 228 296 222 225 222 254 355 338 318 292 319 298 286 255 186 158 145 142 133 132 138 128 124 125 120 119 120 117 117 118